Theta_e
275 274 274 273 274 274 274 273 273 273 272 272 271 272 271 271 271 270 270 270 271 269 270 270 268 269 269 269 269 269 270 272 272 273 274 273 274 274 275 274 274 274 276 274 274 275 274 273 273 274 274 275 276 274 274 274 275 274 274 274 275 273 273 275 274 275 273 273 274 274 276 279 282 284 284 287 289 290 291 290 291 291 290 291 292
274 273 273 272 273 273 273 273 275 271 272 271 271 272 271 271 270 270 270 270 270 270 270 269 269 269 269 269 269 269 269 270 270 272 274 274 273 274 274 273 273 273 275 274 275 273 273 273 273 273 273 274 275 274 274 276 274 273 273 272 274 274 273 274 274 273 271 271 270 271 274 276 281 281 282 283 283 285 288 290 290 290 290 290 291
273 272 272 271 273 273 273 273 272 272 271 271 271 271 271 271 270 270 270 270 270 271 271 269 269 270 269 269 269 269 270 271 271 273 273 272 272 273 273 272 272 273 273 274 274 274 273 273 273 272 272 274 272 272 272 272 273 272 272 272 273 273 274 275 273 273 270 272 271 272 269 273 276 277 279 278 279 282 287 287 289 289 290 291 291
273 272 272 271 272 272 272 271 271 271 272 271 271 270 271 272 270 270 270 270 270 271 272 270 270 270 270 270 270 269 269 271 271 271 271 271 271 272 271 271 271 272 272 272 274 273 273 272 273 272 272 273 272 271 271 272 272 272 272 273 273 270 271 272 275 273 272 272 266 269 271 273 270 273 273 275 278 281 283 286 288 288 288 289 291
273 272 271 271 271 271 271 272 271 271 271 270 270 270 271 271 270 270 270 270 270 271 270 270 270 269 269 270 270 270 270 269 269 269 269 270 271 270 270 271 271 271 272 272 274 273 272 272 272 272 271 272 272 271 271 272 271 271 272 273 271 270 271 271 273 273 272 275 272 269 265 268 268 272 271 273 278 278 281 283 286 286 286 287 288
274 273 273 272 272 271 271 271 271 271 270 270 271 270 270 270 270 270 270 270 270 270 270 270 269 268 267 267 266 266 266 267 266 266 267 268 268 270 270 270 270 271 271 272 272 273 271 272 271 271 271 271 272 272 272 271 271 271 272 272 271 271 272 270 267 273 273 274 273 272 273 268 269 269 271 267 276 278 279 281 283 284 285 286 287
273 272 272 271 271 271 271 271 271 270 270 271 270 270 270 270 270 270 269 269 270 270 270 270 268 268 267 267 267 266 266 267 268 268 268 269 270 269 269 270 270 270 270 271 271 271 271 271 271 271 271 271 271 271 271 271 271 271 273 271 271 273 270 267 267 269 272 273 273 274 274 273 271 270 266 272 268 273 278 279 281 283 283 284 286
274 273 272 272 272 272 271 272 271 271 271 270 270 270 270 270 270 269 270 271 271 270 269 270 268 268 267 267 267 267 267 266 267 268 269 269 269 268 269 269 270 270 270 270 270 270 271 270 270 270 270 270 271 271 271 271 271 271 272 272 271 271 269 267 268 270 268 268 273 272 272 273 273 273 272 269 269 270 272 277 280 281 282 283 285
274 273 272 272 272 271 272 272 272 271 271 270 270 270 270 269 270 270 269 270 270 270 270 268 269 268 267 267 266 268 268 268 268 269 268 268 268 268 268 269 269 269 270 270 270 270 270 270 270 270 270 270 271 271 271 271 270 270 270 269 269 270 270 270 269 268 268 269 269 269 270 270 271 272 272 272 269 269 270 274 276 280 280 281 283
274 273 273 272 272 272 272 272 271 271 271 271 270 270 270 269 269 270 269 269 269 269 269 268 268 269 268 267 266 266 267 267 267 267 267 268 267 268 268 268 269 269 269 269 269 269 269 270 270 269 269 270 271 270 270 269 269 269 269 269 269 269 269 269 269 269 269 271 271 271 269 269 268 268 269 270 273 274 272 274 277 276 276 279 282
274 273 272 272 272 272 272 271 271 271 270 270 270 270 269 269 269 269 269 269 270 269 268 268 268 268 267 267 267 266 266 266 266 266 267 267 266 267 268 268 268 268 269 269 269 269 269 270 269 269 270 270 270 269 268 268 269 268 269 269 269 268 269 269 270 270 270 271 270 270 270 271 269 268 269 269 270 270 270 272 275 277 277 278 280
274 273 273 272 271 271 271 271 271 270 270 270 270 269 269 269 269 268 268 269 269 269 268 268 268 268 267 267 267 266 266 266 266 266 266 266 266 267 268 268 268 268 268 268 268 269 269 269 269 269 269 269 268 269 269 269 269 269 268 269 269 269 269 270 269 269 268 269 269 270 271 272 272 271 270 270 270 270 271 271 273 275 276 277 280
274 274 273 272 271 271 271 271 271 270 270 270 270 269 269 269 268 268 268 269 268 268 268 268 267 267 267 267 267 267 266 266 266 266 266 266 267 267 267 267 267 267 267 267 268 268 269 268 268 268 268 268 269 268 268 269 268 268 268 268 268 268 268 268 268 269 270 270 270 271 271 272 271 272 273 272 270 270 270 269 272 275 274 275 277
274 274 273 272 272 272 272 271 271 271 270 270 270 270 269 269 268 268 268 268 268 268 267 267 267 267 267 267 267 267 266 266 266 266 267 267 267 267 267 266 266 266 267 267 268 268 269 268 268 268 268 268 269 268 268 269 269 268 268 267 267 268 268 268 268 268 269 271 271 270 268 269 271 272 272 272 272 271 269 269 270 273 275 275 277
274 273 273 273 272 272 272 271 271 271 270 270 270 270 269 268 268 268 268 268 268 267 267 267 267 267 267 267 267 267 266 266 266 267 267 267 267 266 266 267 267 267 267 268 268 268 268 268 268 268 268 267 268 267 268 268 268 268 268 268 268 268 268 268 268 268 268 268 269 269 269 269 269 271 271 272 273 272 271 271 271 269 271 274 274
273 273 273 273 272 272 271 271 271 271 270 270 269 269 269 268 268 267 267 267 267 268 267 267 267 267 267 266 266 267 268 268 267 268 267 267 267 266 266 267 267 267 267 268 268 268 267 267 267 267 267 267 267 267 267 267 267 267 266 267 267 268 268 267 267 268 268 268 268 268 268 267 270 271 271 272 272 272 272 273 273 272 270 269 273
274 273 273 273 272 272 272 271 271 271 270 270 269 269 268 268 268 267 267 267 267 267 267 267 267 266 266 266 266 266 266 266 265 266 266 267 267 267 267 267 267 267 267 267 267 267 267 266 267 267 267 267 267 267 267 267 267 267 266 266 265 267 267 267 267 267 268 268 268 267 267 268 268 270 270 270 271 272 273 273 273 272 272 271 271
274 274 273 273 272 272 272 271 271 271 270 270 269 269 268 268 267 267 267 266 267 267 267 266 266 266 266 266 266 266 266 266 265 265 265 265 266 266 266 265 265 266 267 267 267 267 266 267 266 266 266 266 266 267 267 267 267 266 266 266 267 267 266 267 267 267 267 267 268 268 267 267 267 267 268 270 271 271 272 272 273 274 274 272 272
274 273 273 272 272 272 272 271 271 270 271 270 269 269 268 268 268 267 267 267 267 267 267 267 266 266 266 266 266 266 266 266 266 266 265 264 264 264 265 265 265 266 266 266 266 265 266 266 266 266 266 266 266 266 267 267 267 266 266 266 266 267 266 265 266 267 267 267 267 267 267 267 267 267 267 268 270 272 272 273 273 274 274 274 273
274 273 273 273 272 272 272 271 271 270 270 270 269 268 267 267 267 267 267 267 267 267 266 266 266 266 266 266 266 266 266 265 265 265 264 264 264 264 264 264 265 266 266 266 265 265 265 265 265 265 265 266 266 266 266 266 266 266 266 266 266 266 266 265 266 267 266 266 266 265 266 266 267 267 267 267 268 269 269 270 270 272 273 273 274
274 274 273 272 272 272 272 271 271 271 270 270 268 268 268 267 266 267 267 266 266 266 266 265 266 266 266 266 266 266 265 265 265 264 264 264 264 265 265 265 265 265 265 265 265 265 265 265 265 265 265 265 265 266 266 266 266 266 266 266 266 266 265 265 266 266 266 266 266 265 265 266 267 266 266 267 267 268 269 269 270 271 271 272 272
274 274 273 272 272 272 271 271 270 269 269 268 268 268 268 267 266 266 266 266 265 266 265 265 265 265 265 265 266 266 265 264 264 264 264 264 264 264 264 264 264 265 265 265 265 265 265 265 265 265 265 265 265 266 266 266 266 266 266 266 266 266 265 265 265 265 265 265 265 264 264 264 265 264 264 265 266 267 268 268 269 270 270 271 273
275 274 273 273 273 272 271 271 270 269 269 268 268 267 267 267 266 266 265 265 265 265 265 265 265 265 265 266 265 265 265 264 263 263 263 263 264 264 264 264 264 264 265 265 264 265 265 264 264 264 264 265 265 266 266 266 266 266 265 266 266 266 265 265 265 265 265 264 264 264 264 265 265 264 264 265 266 266 267 267 268 270 271 271 272
274 274 273 273 272 272 271 270 270 269 268 268 268 268 267 267 266 266 265 265 265 265 265 265 265 265 265 264 264 264 264 264 263 263 263 263 264 264 264 264 264 264 264 264 264 264 264 264 264 264 265 265 265 266 266 266 266 266 266 266 266 265 265 265 265 264 264 264 264 263 264 264 264 264 264 264 265 266 266 266 267 268 270 271 271
274 273 273 272 271 270 270 270 270 269 269 268 268 267 267 266 266 265 265 265 265 265 264 264 264 264 264 264 264 264 264 263 263 263 263 263 263 263 264 264 264 263 264 264 264 264 263 263 263 264 264 265 265 265 265 265 266 266 266 266 265 265 265 265 265 265 266 265 264 264 264 263 263 263 264 264 265 265 266 266 266 267 268 269 270
275 274 273 271 271 271 270 270 270 269 269 268 268 267 266 266 266 265 265 265 265 265 264 264 264 263 263 263 263 263 263 263 263 263 263 263 263 263 263 263 263 263 263 263 263 263 263 263 263 264 264 264 265 265 265 265 266 266 266 266 266 265 265 265 265 265 265 265 265 264 264 264 263 262 263 264 264 264 265 265 265 266 267 268 268
278 276 274 272 271 270 270 270 270 270 269 269 268 267 266 266 265 265 265 265 265 264 264 264 264 263 263 263 263 263 263 263 263 263 263 263 263 263 263 263 263 263 262 262 262 262 263 263 263 264 264 264 264 265 265 265 265 266 266 266 266 266 266 266 266 265 265 265 265 265 264 264 264 263 263 263 263 263 263 264 264 264 265 266 267
278 275 273 272 272 271 271 270 270 269 269 269 268 268 267 265 265 265 265 265 264 264 264 263 263 263 263 263 263 263 263 263 263 263 263 263 263 263 263 263 262 262 262 262 261 262 262 263 263 263 263 264 264 264 264 264 265 265 266 266 266 267 267 267 267 267 267 266 265 265 265 264 264 264 263 263 263 263 263 263 264 264 264 265 265
279 277 275 273 272 272 271 271 270 270 269 268 268 267 266 265 265 265 265 264 264 264 263 263 263 263 263 263 263 263 263 263 263 263 262 262 262 262 262 261 261 261 261 261 261 261 261 261 262 262 263 263 263 263 264 264 265 265 266 266 266 267 267 267 267 267 267 267 266 266 265 264 265 267 269 268 267 267 263 262 263 263 264 264 264
280 280 278 275 274 273 272 271 271 270 269 269 268 267 266 265 265 265 264 265 264 264 263 263 263 263 263 263 263 263 263 262 262 262 262 262 262 262 261 260 260 260 260 261 260 261 260 261 261 262 262 263 263 263 265 269 270 268 267 267 267 267 267 267 267 267 268 268 267 266 266 268 269 269 270 271 272 272 271 267 264 263 264 264 263
281 281 280 279 276 274 273 271 271 270 270 269 268 267 267 266 265 265 264 264 264 263 263 263 262 263 263 263 262 262 262 262 262 262 262 261 261 261 260 260 260 259 259 260 260 260 260 261 261 261 261 262 262 263 268 270 272 273 272 271 270 269 269 268 268 268 268 268 268 267 266 267 269 270 270 272 272 273 273 273 273 272 269 265 263
283 283 282 280 278 275 273 272 272 272 270 269 268 268 267 266 266 265 265 265 264 264 263 262 262 263 263 262 262 262 261 261 261 261 261 261 261 260 259 259 259 259 259 259 259 260 260 260 260 260 260 261 261 266 269 271 273 274 275 273 274 273 273 272 271 269 268 269 269 268 267 266 265 266 266 267 270 273 274 274 274 274 274 274 272
283 282 282 282 280 277 275 274 273 272 271 270 269 268 267 267 266 266 265 264 264 263 263 262 262 262 262 262 262 261 260 260 260 260 260 260 259 259 259 258 258 258 259 258 259 260 259 260 260 259 259 260 261 266 269 271 273 274 276 276 275 275 275 275 274 272 270 269 270 269 267 266 265 269 269 267 266 266 271 273 274 274 274 274 275
283 283 282 282 280 278 275 274 274 273 272 271 270 268 268 267 266 266 265 264 263 263 262 262 262 262 261 261 261 260 260 259 260 260 259 259 258 258 258 258 258 258 258 258 259 259 259 259 259 259 259 260 260 265 269 272 273 275 276 277 276 276 275 275 276 274 272 271 270 270 268 266 266 266 267 267 267 266 265 266 267 268 269 271 274
282 282 282 282 281 278 275 273 272 272 271 270 269 268 267 266 266 265 264 263 263 262 262 262 261 261 261 261 261 260 259 259 259 259 258 258 258 257 258 258 257 258 258 257 257 257 258 258 259 259 259 260 261 268 270 272 274 275 277 278 276 275 273 272 275 276 274 273 272 271 270 269 268 268 267 268 267 267 266 266 266 265 266 266 267
282 281 281 281 280 279 276 274 273 270 269 269 268 267 266 265 265 265 264 263 262 262 262 261 261 261 260 261 260 259 259 259 259 258 257 258 258 257 257 258 257 257 257 257 257 258 258 258 259 259 259 260 261 268 271 272 274 275 277 276 275 273 271 270 273 275 275 275 273 272 271 270 270 269 271 273 272 269 267 267 267 267 267 267 266
282 281 281 280 280 278 277 275 272 270 269 268 267 266 266 265 264 264 263 263 262 261 261 261 260 260 260 260 260 259 259 258 258 257 257 256 257 256 257 257 256 257 257 257 257 257 258 259 260 260 260 261 261 266 270 272 274 276 276 275 275 273 270 268 271 273 274 274 274 273 272 271 271 270 272 274 275 274 269 268 267 267 267 267 267
282 281 280 280 279 276 274 273 271 269 269 268 267 266 265 264 263 263 262 262 261 261 261 261 260 260 260 259 260 259 258 257 257 256 256 257 257 257 257 257 256 256 257 257 257 258 259 260 261 261 262 261 262 266 271 273 274 276 276 274 274 273 271 270 269 269 272 273 274 277 276 272 272 272 274 276 277 275 272 270 268 267 267 267 268
282 280 279 278 277 274 272 270 270 268 268 267 266 265 264 263 263 262 262 261 261 261 261 260 260 260 260 260 259 259 258 257 256 257 257 256 256 256 257 257 256 256 256 257 258 259 260 261 262 262 265 265 265 267 270 272 274 275 275 273 273 273 272 271 269 268 270 273 274 276 277 276 275 274 277 278 278 277 274 272 271 269 268 267 268
282 281 280 277 273 269 268 268 268 268 268 266 265 264 263 263 263 262 261 261 261 261 261 261 261 260 260 259 259 258 258 257 257 256 256 256 256 256 256 256 257 257 257 258 258 259 259 260 262 262 262 263 264 265 267 272 274 274 274 273 272 271 270 270 269 269 268 270 273 273 274 276 276 277 277 278 279 279 276 275 273 271 270 269 271
281 280 278 275 272 270 269 269 269 268 267 266 265 264 263 263 263 262 261 262 262 262 261 261 260 260 259 259 259 258 257 257 257 256 256 256 256 256 256 256 256 257 257 257 258 258 259 260 261 262 262 263 264 265 266 272 273 273 274 273 271 271 270 269 268 270 270 271 272 272 269 274 276 276 277 278 278 278 278 276 275 273 273 273 275
282 280 278 275 272 270 269 268 269 268 267 265 265 263 263 263 262 261 262 263 262 261 261 260 260 259 259 258 258 258 257 256 256 256 255 255 255 256 256 255 256 256 256 256 257 258 258 259 260 261 261 262 264 266 268 271 272 273 273 273 271 271 271 270 270 271 272 272 273 272 270 274 275 276 277 277 277 277 278 277 277 279 279 279 276
280 279 279 277 273 272 270 270 269 268 267 266 264 263 263 263 262 262 263 263 262 261 260 260 259 258 258 258 257 257 256 256 255 255 255 254 255 255 255 255 255 256 256 256 257 257 257 258 259 260 260 261 263 266 270 268 270 272 272 273 273 272 273 272 271 271 271 272 272 271 271 274 275 276 276 277 278 278 278 277 279 279 280 280 279
280 280 279 278 276 274 272 271 269 268 267 266 264 263 263 262 262 264 264 262 261 261 260 259 258 258 257 257 256 256 256 255 255 255 254 254 254 254 255 255 256 256 256 257 257 257 258 258 259 260 261 263 265 265 267 269 269 271 272 273 273 273 274 272 272 271 271 272 271 271 272 274 275 276 277 278 278 278 277 278 279 279 279 279 278
279 279 279 278 276 274 272 271 269 268 267 266 265 264 264 263 264 264 263 261 260 260 259 258 257 257 256 256 256 255 255 255 254 254 253 253 253 254 254 255 256 256 256 257 257 257 258 258 259 260 262 264 265 263 260 264 269 270 272 272 273 273 273 274 271 271 272 272 273 275 276 276 276 276 276 275 275 275 276 276 277 277 277 276 277
280 279 279 278 277 274 271 269 269 268 267 266 265 265 264 264 265 264 262 261 260 259 258 257 257 256 256 255 255 254 254 254 254 254 254 254 254 254 255 255 256 256 256 256 257 257 258 259 260 261 264 264 263 259 260 261 266 268 269 271 273 273 273 273 273 272 273 274 274 274 274 273 273 272 271 271 271 272 274 275 275 275 273 274 275
279 279 278 278 277 275 273 272 270 269 267 266 265 265 265 266 264 263 262 261 259 258 257 257 256 255 255 254 254 254 253 253 253 253 254 254 255 255 255 256 256 255 255 256 257 258 259 260 261 263 263 261 258 258 260 261 263 265 267 268 270 270 272 272 271 271 271 268 269 269 268 270 270 271 271 271 270 270 269 268 267 268 270 271 272
280 279 279 278 277 275 274 273 272 271 269 266 265 265 265 265 264 263 261 260 258 258 257 256 256 255 254 254 253 254 254 254 254 254 254 254 254 255 254 255 255 254 254 256 257 258 259 261 263 263 263 262 261 257 260 262 265 266 268 269 268 269 269 269 270 270 266 266 263 266 265 263 264 264 265 265 266 266 267 268 268 269 269 270 272
279 279 278 277 276 275 274 273 272 272 270 267 266 265 265 265 264 262 261 259 258 257 257 256 256 255 254 254 254 254 254 254 254 254 254 255 254 254 254 255 256 256 256 257 258 259 261 263 265 264 263 262 260 260 263 268 268 271 270 269 267 268 269 269 270 270 265 262 261 260 260 261 261 262 262 263 263 263 264 265 266 267 268 269 270
280 279 278 277 276 275 274 273 273 272 270 268 266 265 265 265 264 261 260 258 258 257 257 256 255 254 254 254 254 253 253 253 253 253 253 254 258 261 259 257 258 263 267 268 267 264 264 265 265 265 265 264 263 264 269 271 271 271 271 271 271 271 271 269 270 269 265 259 259 258 258 258 259 259 259 259 260 260 261 262 263 265 266 266 267
279 278 278 277 276 275 274 273 273 272 270 268 266 265 264 264 264 262 260 259 258 257 256 256 255 255 254 254 253 253 253 253 253 253 253 253 254 256 263 266 266 266 267 268 269 270 270 269 267 264 266 269 269 270 270 270 270 270 270 270 271 270 269 269 268 263 259 258 257 257 257 257 257 257 257 257 258 258 258 259 260 261 263 264 265
Wind_Speed
6 7 5 4 7 5 5 5 5 3 2 2 2 3 2 2 1 2 2 2 2 3 4 2 4 5 4 4 5 5 6 6 6 5 3 3 5 5 5 5 6 6 6 6 6 6 6 5 6 7 7 6 5 6 4 6 5 5 6 5 7 7 7 4 8 5 9 11 11 8 5 5 7 4 3 4 5 5 4 3 3 3 5 6 6
4 4 5 4 5 6 4 5 4 4 3 3 4 4 3 2 3 3 2 2 2 3 3 2 3 4 3 4 5 6 6 6 6 6 3 4 4 4 5 5 6 6 6 6 5 5 5 6 5 5 6 6 5 4 5 5 5 6 5 6 4 6 6 5 7 8 7 9 11 13 8 4 2 6 3 7 8 8 6 3 3 4 5 5 6
5 7 6 5 7 7 6 5 4 5 4 4 4 3 4 4 4 3 3 3 2 3 2 2 3 3 2 4 5 5 4 6 5 5 2 5 4 3 5 6 7 6 5 6 5 4 4 5 4 5 5 5 6 6 5 6 4 6 6 5 7 3 4 4 5 7 5 6 5 5 8 11 3 5 5 8 10 8 5 3 3 4 6 4 4
11 9 8 7 8 7 6 5 5 4 4 4 5 5 4 5 4 4 3 3 3 4 4 2 4 2 3 4 5 4 5 6 5 5 4 5 5 3 3 5 6 6 5 5 4 3 3 4 4 4 5 4 4 5 5 5 5 6 5 5 4 6 5 3 3 4 5 7 8 2 5 4 8 4 11 12 7 7 7 5 2 4 5 7 4
11 8 7 6 7 9 9 7 5 6 6 7 6 6 4 5 5 5 4 4 4 4 3 4 4 2 3 3 3 4 4 3 4 4 4 5 6 5 5 4 5 5 5 5 5 5 3 4 4 4 5 5 4 5 4 4 4 3 4 3 4 4 6 3 2 3 4 1 2 5 5 4 4 9 14 10 3 7 6 8 2 2 5 5 6
11 10 9 8 9 7 6 6 7 7 8 7 6 6 5 5 5 5 4 4 5 4 4 4 3 3 3 4 5 5 5 5 5 6 6 6 6 5 4 4 5 4 4 4 5 5 4 4 4 5 5 5 5 4 4 4 4 3 4 3 4 4 3 4 3 3 2 0 3 6 3 0 5 8 7 7 9 4 9 6 2 2 2 4 4
8 8 6 6 7 7 8 8 9 9 9 6 6 6 6 6 5 5 5 5 5 4 4 4 3 3 2 3 4 5 6 5 4 5 5 6 5 5 6 5 3 3 3 4 3 4 5 3 4 5 5 4 6 5 4 4 3 4 4 4 4 5 4 4 4 3 2 0 3 4 2 1 3 2 2 9 12 8 1 7 9 7 2 1 3
11 11 10 9 9 10 11 11 10 11 8 6 7 6 7 7 6 6 5 5 5 5 5 5 4 4 3 3 4 4 4 7 6 5 5 6 5 6 5 3 3 4 4 4 3 4 5 4 4 5 5 4 5 5 4 3 4 4 4 3 4 4 4 3 4 2 2 3 1 1 3 4 3 3 3 3 7 12 14 9 5 5 4 1 1
11 11 11 10 11 11 9 9 10 9 7 8 8 7 7 7 7 6 6 6 5 6 6 5 4 4 4 4 4 4 5 5 5 6 7 6 6 6 5 3 4 3 3 3 4 4 6 5 5 4 4 4 5 5 3 4 5 5 5 5 5 5 3 4 4 3 3 3 3 2 3 3 3 4 5 4 5 7 12 10 11 7 4 2 2
10 12 10 9 9 9 9 8 7 9 8 8 7 6 6 6 7 7 8 6 6 6 6 5 5 4 4 5 6 5 5 5 5 6 5 5 7 6 5 4 4 4 3 3 4 4 4 5 4 4 4 4 6 3 5 6 4 4 5 5 6 6 5 5 5 5 3 4 3 5 1 1 2 1 2 4 7 9 10 10 9 11 12 7 3
11 10 10 10 8 8 6 9 9 7 6 7 8 8 7 7 8 8 8 6 6 7 7 7 6 5 5 6 7 7 6 6 6 6 5 6 7 6 5 5 4 4 4 4 4 4 4 5 5 4 5 6 6 5 5 4 4 4 4 5 6 7 6 6 7 6 4 5 5 4 5 5 4 5 4 3 2 6 8 10 9 7 7 12 6
10 9 10 9 7 7 6 9 9 9 7 8 8 8 8 8 8 9 8 7 6 7 7 7 6 6 6 6 7 7 6 6 7 7 6 7 7 7 6 5 4 4 4 4 4 4 4 4 4 5 5 4 5 5 5 4 4 4 5 5 5 5 5 5 6 5 5 5 6 5 5 5 5 4 4 4 5 5 7 9 9 9 10 7 9
10 10 9 8 10 10 10 10 8 9 10 11 11 9 9 9 9 9 9 8 8 7 8 7 7 7 6 7 7 7 7 7 7 7 6 6 6 6 6 6 6 6 5 5 4 4 4 4 4 4 5 5 6 5 5 5 6 6 6 6 6 6 6 6 4 5 6 6 6 6 5 4 3 4 4 2 2 3 4 8 9 9 11 10 6
11 10 10 10 10 10 10 10 10 10 11 11 10 9 8 8 9 9 10 7 7 7 8 7 8 7 7 7 6 6 7 7 7 7 6 6 5 5 5 6 7 7 7 6 5 5 5 5 6 6 5 5 5 6 7 6 6 6 6 6 6 5 6 6 7 7 7 6 4 2 2 3 4 4 4 6 5 4 4 6 8 9 9 9 6
10 10 11 12 11 11 10 10 10 10 11 10 9 10 9 9 9 10 9 8 8 8 7 8 7 7 7 7 7 6 7 7 7 7 6 5 4 5 6 6 7 6 6 6 6 6 5 5 6 6 5 5 5 5 6 6 6 6 6 7 7 6 7 7 7 7 6 6 5 3 3 3 3 5 5 5 6 5 5 5 6 9 10 10 8
9 11 12 12 11 10 10 9 10 10 11 9 10 9 10 10 10 11 11 10 9 8 8 8 7 6 7 8 8 8 8 7 6 6 5 4 5 6 6 6 6 6 7 7 6 6 6 5 5 5 6 6 6 7 7 6 6 7 7 7 8 7 7 8 7 7 7 8 7 7 4 3 4 5 5 5 6 5 6 5 6 8 9 10 7
11 12 13 13 10 10 11 11 10 10 9 11 12 11 12 11 10 9 9 8 9 9 8 7 7 7 8 8 8 8 8 7 6 7 8 7 7 6 6 5 6 7 6 5 6 6 5 4 6 6 6 6 7 7 7 7 7 7 7 6 7 7 8 8 7 7 7 7 6 6 4 4 3 5 5 4 4 5 5 5 6 8 9 10 7
12 12 12 12 12 13 12 11 12 12 12 12 12 11 11 11 12 9 9 9 9 8 9 8 8 8 8 8 8 7 7 7 6 6 6 6 5 4 4 6 6 6 6 6 6 5 5 7 6 7 6 6 7 7 7 7 7 7 7 7 6 6 7 6 7 7 7 6 6 6 4 3 3 3 3 5 5 6 6 6 6 7 8 9 8
11 13 13 13 13 13 12 13 13 12 12 12 11 11 10 10 11 10 10 10 9 8 8 7 8 6 6 8 8 8 7 7 6 7 4 4 5 5 6 6 6 6 7 6 5 5 6 6 6 7 7 7 7 7 7 7 6 7 7 7 6 7 7 7 6 6 7 7 7 8 7 5 4 4 3 4 5 5 5 5 6 6 7 8 9
13 13 13 14 14 14 14 13 13 13 12 11 11 10 12 11 11 11 8 7 8 8 8 8 8 7 7 8 9 8 7 6 6 5 5 5 6 6 6 6 7 6 6 5 4 6 7 7 7 7 7 7 8 7 7 7 7 7 7 7 6 7 8 8 7 7 6 6 6 6 5 5 4 5 5 4 5 5 5 5 5 6 7 7 8
12 12 13 13 14 13 12 11 11 10 9 9 10 11 10 10 10 10 9 9 9 9 8 7 6 7 9 10 9 8 8 6 6 5 6 6 6 6 6 6 6 6 4 4 6 6 7 7 8 7 8 8 8 8 7 7 7 8 7 8 8 8 8 8 8 9 8 8 7 6 7 6 6 6 6 5 5 5 6 6 5 5 6 6 7
12 12 12 12 12 12 10 9 8 8 10 11 8 8 9 12 11 10 9 9 10 9 9 7 7 7 9 9 10 8 6 5 6 5 6 6 6 6 6 7 7 5 4 6 7 6 6 7 7 8 8 9 8 8 8 7 8 8 8 7 8 8 9 9 8 9 8 6 6 6 5 5 4 4 4 4 4 5 6 7 6 6 7 7 6
13 12 11 12 11 11 11 12 13 14 13 12 11 11 12 12 11 10 10 11 10 9 8 7 7 8 10 9 8 6 5 6 6 6 7 7 7 7 6 7 5 5 5 6 6 6 6 7 8 9 8 9 9 8 8 9 8 7 8 7 7 8 8 9 9 9 8 6 7 7 8 6 5 6 6 6 6 6 5 5 5 5 7 7 7
13 11 10 10 10 9 8 10 12 12 13 14 12 11 11 11 11 10 11 10 9 8 8 8 8 8 8 8 8 7 6 6 7 6 7 7 7 7 6 6 5 5 6 6 5 6 7 8 9 9 10 10 9 8 8 7 9 8 8 9 8 9 9 9 9 8 8 7 7 7 7 7 6 7 6 6 6 6 6 6 6 5 6 6 5
12 12 13 10 9 11 13 12 12 12 12 12 12 12 12 11 10 11 11 9 9 7 7 6 7 9 8 8 8 8 8 8 8 7 8 7 7 7 5 5 5 6 6 5 5 5 7 8 9 9 10 10 10 10 9 8 8 8 9 9 9 8 8 9 9 9 9 9 9 9 9 7 7 8 7 7 6 7 7 7 6 5 6 5 5
13 13 10 13 14 12 11 13 12 12 13 12 12 12 11 11 11 9 8 7 8 7 7 7 7 8 9 10 9 9 10 10 9 8 7 7 7 6 5 5 5 6 5 5 6 6 7 9 10 10 10 10 10 10 10 10 10 10 10 9 8 8 9 9 9 10 10 9 10 10 9 8 8 9 9 7 7 8 7 7 6 5 5 5 6
15 13 12 9 10 15 15 14 13 13 12 12 12 12 11 11 11 10 8 7 7 7 7 8 8 9 9 9 9 9 9 9 9 8 6 5 5 5 5 6 5 5 5 6 7 7 8 9 11 10 10 10 11 10 10 11 11 11 10 9 9 10 10 10 10 11 10 10 10 11 10 9 9 9 9 9 8 8 8 8 7 6 6 6 7
13 11 12 14 15 13 13 15 14 13 12 12 12 11 12 12 12 8 8 7 6 7 8 8 9 9 10 10 9 9 9 9 8 7 7 5 5 6 6 5 4 6 6 7 7 7 8 9 10 10 10 10 10 10 10 10 10 10 9 10 10 11 11 11 12 11 11 11 11 11 11 11 11 11 10 10 9 9 8 8 8 7 7 8 7
15 15 13 13 14 14 14 14 14 13 13 14 12 11 10 9 8 7 7 9 7 7 8 8 9 10 9 9 8 8 8 8 8 8 8 7 6 5 5 4 4 5 5 5 6 7 7 9 10 11 11 10 11 11 9 9 9 10 10 11 12 12 12 12 12 12 11 12 11 11 11 11 12 16 19 16 14 13 9 9 9 7 8 8 7
18 17 15 13 15 15 14 13 13 15 16 13 11 11 10 9 9 8 9 8 7 8 8 9 10 10 9 8 8 8 7 7 7 8 8 7 4 3 4 4 4 5 5 6 6 7 7 9 11 11 11 10 9 8 13 20 18 12 9 9 11 11 12 12 12 11 11 11 12 11 11 19 21 22 22 23 23 22 21 15 11 9 9 9 9
18 17 16 15 14 14 13 13 15 15 18 18 13 10 9 9 8 8 8 8 8 9 9 9 10 9 8 8 8 7 6 8 8 8 6 4 4 3 4 5 5 5 6 6 6 8 8 9 9 10 10 10 9 10 20 21 22 23 16 11 9 10 13 12 12 12 13 11 11 11 11 14 18 19 19 24 22 23 22 23 23 21 16 13 10
21 20 17 15 14 14 14 16 16 16 15 15 14 10 10 11 9 9 9 8 9 9 9 9 8 8 8 9 8 7 7 7 7 7 5 4 3 3 4 5 6 6 6 6 7 8 9 8 8 9 10 10 10 16 21 22 22 23 21 13 11 10 11 12 13 12 11 10 11 10 10 9 10 12 12 13 18 22 23 23 23 22 23 24 21
21 21 20 19 17 15 15 15 14 14 14 15 15 10 11 10 10 9 8 9 9 9 9 8 8 8 8 8 8 7 6 4 5 5 5 4 4 5 3 5 7 6 6 7 9 9 8 7 8 9 10 10 10 17 20 22 22 22 22 19 11 12 11 12 12 13 12 10 9 9 9 8 9 18 16 12 11 13 19 24 23 23 22 23 24
21 21 20 19 16 13 12 14 14 13 13 13 15 11 7 8 8 8 9 9 9 9 8 8 7 8 8 7 6 6 6 6 4 5 5 5 4 5 5 6 6 6 7 8 8 8 8 8 8 9 9 10 11 16 21 21 21 21 22 19 12 10 7 7 8 10 10 10 10 9 8 8 8 9 10 11 11 11 11 11 12 12 10 15 21
22 23 22 21 20 15 12 11 12 11 8 8 11 11 7 8 9 9 9 9 8 8 8 8 7 7 7 6 7 6 6 5 6 5 5 6 5 5 6 6 6 6 7 7 6 7 7 8 8 8 8 10 10 19 20 21 20 21 21 19 8 4 5 4 5 6 8 8 8 8 9 9 8 9 10 12 11 11 10 9 10 12 12 12 10
21 22 22 21 21 18 14 14 7 5 7 10 12 11 11 9 8 9 8 9 8 8 8 7 7 7 7 7 6 6 5 5 5 5 5 6 6 6 6 6 5 6 6 6 7 7 8 8 8 8 8 10 11 19 20 20 20 19 21 10 4 5 4 4 3 4 5 6 6 7 8 9 9 9 13 19 17 11 10 11 11 12 12 11 11
20 20 21 19 19 17 14 8 5 8 9 13 11 13 13 10 8 8 8 8 9 9 9 8 7 7 6 6 6 6 6 5 4 5 5 5 7 6 6 4 6 7 8 7 7 7 7 7 8 8 8 9 10 16 19 18 18 19 13 5 5 4 4 4 3 2 3 4 6 7 8 8 9 9 14 18 19 18 11 12 12 13 12 10 12
20 20 20 20 17 13 9 6 6 8 10 11 12 14 14 11 8 7 9 9 9 9 8 7 7 7 6 5 6 6 5 5 5 5 5 7 6 5 5 4 7 7 7 7 6 6 7 7 8 9 8 8 10 14 18 17 17 16 13 6 4 4 4 4 4 4 3 3 5 11 12 9 9 9 15 19 19 16 11 12 12 13 15 14 14
19 19 19 20 18 12 8 4 6 9 10 11 13 14 14 14 11 8 8 9 10 9 9 9 8 6 6 5 5 5 5 5 7 7 5 7 7 6 6 5 6 6 8 7 6 6 7 7 7 8 12 12 10 13 18 18 17 15 11 5 5 5 4 4 5 6 4 5 5 5 10 9 8 12 19 19 20 16 11 12 13 12 13 15 16
21 20 18 16 12 7 6 7 10 13 9 12 13 12 13 13 13 8 9 10 10 10 7 6 6 5 5 5 5 6 5 6 7 6 5 6 4 4 7 7 7 6 6 5 6 7 8 8 7 7 8 9 9 9 12 17 15 12 12 8 5 5 5 5 4 6 6 4 5 5 6 11 17 18 18 19 19 21 13 12 12 11 13 16 14
18 18 17 15 13 9 12 13 12 6 8 12 12 14 15 14 11 10 12 11 7 7 7 7 5 6 6 6 5 6 7 6 6 6 4 4 5 6 6 6 6 6 6 7 7 7 7 8 7 7 8 9 8 9 11 15 11 12 13 12 5 6 6 5 5 7 6 7 4 3 2 8 16 17 18 19 20 20 18 11 9 11 13 16 14
17 19 17 14 14 11 11 11 9 7 9 11 14 16 13 15 13 13 13 10 8 7 6 6 6 7 6 6 6 5 6 6 5 3 3 5 6 6 6 7 6 6 7 8 6 5 6 7 7 7 7 9 10 13 9 8 11 13 14 15 8 6 7 7 7 7 6 5 5 3 2 8 16 17 19 19 20 20 21 13 12 17 21 25 19
20 20 19 17 16 15 14 14 9 7 9 12 15 17 16 14 17 20 11 8 9 7 7 7 6 6 6 6 6 7 6 4 4 3 5 6 6 6 6 7 7 7 8 8 7 6 5 6 6 7 6 7 8 8 8 5 10 14 15 14 13 10 13 9 7 6 5 5 3 4 6 15 19 19 19 20 19 21 18 12 20 22 21 21 18
20 19 19 19 17 16 16 13 8 8 10 13 15 15 14 16 22 16 8 8 9 7 7 6 6 7 6 6 7 7 6 5 5 4 5 6 6 6 6 6 6 6 6 6 5 4 4 5 5 6 6 5 5 3 5 9 9 14 13 13 13 13 13 7 7 6 5 5 5 6 9 17 19 20 19 19 19 18 12 17 18 20 19 18 9
19 19 19 17 16 18 17 15 9 9 9 13 15 14 14 16 18 9 10 11 8 8 7 7 7 7 8 8 6 6 7 5 4 4 5 4 6 6 6 6 5 5 5 6 6 4 4 4 4 5 6 5 2 2 4 7 12 14 14 14 14 14 13 14 8 6 7 6 10 17 18 18 16 15 15 14 11 11 14 14 15 14 11 6 6
20 20 20 19 18 16 14 14 13 8 10 11 15 15 15 20 8 10 11 12 12 9 11 11 11 9 8 6 8 6 5 5 5 4 5 5 5 5 5 5 5 5 5 5 6 4 4 4 4 5 5 2 3 3 5 6 7 10 12 15 17 14 13 14 13 10 14 13 12 10 11 12 10 9 7 6 6 7 11 13 11 9 4 5 6
21 20 19 18 17 17 18 17 16 10 10 11 13 14 17 11 7 10 13 12 13 12 11 10 11 9 8 8 9 5 4 4 5 4 5 5 5 5 5 6 5 5 5 5 5 5 4 4 4 4 0 2 3 4 6 6 6 7 7 9 8 7 12 13 9 7 4 4 5 6 5 7 6 8 8 7 7 7 6 5 4 4 3 4 5
19 20 19 18 18 19 19 19 17 14 9 11 11 14 15 11 8 12 13 13 13 14 12 10 11 9 10 9 7 7 6 4 5 5 5 4 5 5 5 6 6 6 5 5 5 5 6 4 4 2 2 3 5 4 6 6 7 8 7 5 3 5 7 6 6 0 4 3 4 5 6 4 5 5 4 3 4 4 5 5 5 5 4 5 6
22 21 19 17 17 17 18 18 18 15 11 9 12 14 13 12 12 12 13 16 15 8 9 10 8 9 9 6 5 5 5 4 3 3 3 5 5 4 5 6 8 6 6 6 6 7 7 6 4 2 3 2 3 5 6 10 11 11 7 5 4 6 3 1 5 5 4 4 4 5 5 5 5 5 4 5 4 6 6 5 6 6 5 5 5
21 19 19 18 16 16 17 18 17 15 12 10 12 12 12 13 12 13 15 18 16 11 8 7 9 11 9 6 5 5 5 4 3 4 3 4 8 12 10 7 6 10 15 18 14 9 8 5 3 3 3 3 4 6 12 14 12 10 11 12 12 7 6 5 6 6 6 4 4 3 4 5 5 5 5 5 6 6 6 6 6 7 6 6 6
21 20 20 19 18 17 16 17 17 15 13 11 11 10 10 11 13 13 16 18 17 14 12 7 8 7 8 6 5 5 5 4 3 4 3 3 3 6 11 15 14 13 13 12 12 13 11 7 3 1 3 9 11 12 12 10 10 10 10 11 9 9 9 9 7 4 5 5 4 4 4 4 4 4 5 5 6 6 6 6 6 6 6 6 7
Wind_Direction
221 218 221 203 204 191 183 178 177 165 182 203 197 192 200 200 242 270 255 272 296 311 306 331 319 318 309 321 321 319 315 316 311 308 311 348 333 334 344 359 356 354 1 358 5 4 7 356 356 354 353 347 359 359 348 353 1 358 344 345 338 346 348 350 354 348 351 345 341 333 332 301 284 311 331 32 21 325 293 293 289 286 287 303 307
250 254 240 208 207 199 192 195 170 174 209 198 203 205 210 218 214 244 249 261 267 284 273 316 287 290 306 313 313 314 312 306 310 307 314 356 336 342 350 355 353 350 352 354 353 360 355 356 354 348 356 351 359 349 1 360 2 2 351 350 339 348 342 351 352 8 11 359 346 331 338 326 326 354 2 20 358 329 313 332 320 301 293 275 287
222 236 245 218 204 201 198 200 194 197 198 202 214 213 224 222 221 232 235 244 246 271 258 274 278 282 298 301 308 307 291 296 290 294 334 357 326 351 351 351 344 340 348 344 344 344 347 349 348 344 353 352 351 350 348 353 357 355 354 346 336 349 333 344 12 50 355 352 319 325 344 341 343 4 331 348 351 322 329 354 325 334 318 291 261
228 224 226 213 202 205 210 206 200 196 199 209 210 221 227 225 211 227 232 240 240 249 286 274 274 290 285 288 287 284 301 310 327 323 341 341 327 343 342 344 333 326 332 328 326 331 340 341 335 345 341 342 341 339 338 337 349 345 347 343 347 349 343 323 44 25 37 357 7 357 307 352 328 1 342 318 320 310 307 311 0 17 6 353 327
229 236 233 219 208 214 212 205 189 203 210 211 212 218 220 221 220 218 228 234 234 250 257 260 267 275 271 283 271 285 291 293 313 314 323 322 319 323 329 334 322 316 320 326 331 340 343 337 341 337 334 329 333 329 326 324 330 321 332 348 12 318 331 316 351 2 15 11 107 14 344 12 282 322 333 302 344 329 333 309 335 43 11 4 356
220 226 225 217 216 221 220 207 205 213 217 217 209 219 219 224 213 220 227 237 233 231 234 253 266 274 319 330 324 326 317 328 322 320 318 320 313 306 316 316 304 308 320 344 342 343 347 341 349 345 335 333 330 319 321 325 319 339 328 340 338 317 289 333 312 329 324 177 147 165 227 259 332 317 343 311 310 341 294 294 313 356 30 18 355
234 239 238 231 227 220 220 212 211 216 222 209 212 218 221 217 214 217 225 234 230 225 224 251 247 262 256 275 291 294 301 295 298 294 300 301 298 310 307 302 297 321 332 334 329 335 335 329 344 333 325 322 323 322 318 312 325 337 325 336 303 308 343 302 287 287 312 167 265 219 240 215 227 296 284 296 322 322 234 349 326 313 309 58 9
222 225 226 224 221 213 220 215 211 216 213 202 213 217 219 217 211 220 226 235 223 220 222 222 243 253 243 244 267 274 277 289 294 290 288 298 304 301 295 289 322 319 317 316 319 328 323 324 324 316 309 310 309 307 303 309 332 321 317 318 326 319 296 291 283 278 282 261 192 285 271 247 230 245 288 291 261 296 307 305 255 296 294 270 173
217 222 223 218 220 220 219 220 217 213 206 207 209 215 216 215 217 221 226 227 232 219 220 214 240 239 232 240 250 257 268 276 290 294 294 288 287 290 287 297 302 299 298 307 311 308 316 311 309 299 303 302 308 296 309 331 318 309 311 308 299 293 289 290 299 289 271 267 270 232 229 228 230 220 234 261 279 282 284 301 314 310 305 260 173
224 227 225 224 221 221 217 221 212 210 210 206 211 213 214 213 219 223 228 224 225 219 219 216 221 245 247 244 248 255 261 270 268 277 277 284 286 286 284 286 288 292 290 294 299 295 298 298 293 302 298 300 305 318 319 303 291 290 293 287 284 281 276 272 267 258 253 260 272 261 241 241 248 253 236 240 255 261 280 299 307 326 319 308 311
227 226 229 232 224 221 207 213 216 213 208 206 213 212 211 213 219 226 229 227 222 212 208 218 221 222 234 246 248 256 261 267 272 270 279 286 288 287 286 287 278 278 287 292 283 289 286 301 304 296 302 301 302 299 280 276 279 282 290 293 288 280 279 268 275 280 270 262 256 254 240 233 225 237 218 232 286 292 305 302 304 298 300 299 313
228 226 234 229 233 227 214 224 215 214 208 211 216 211 213 215 216 227 232 228 219 211 211 219 220 225 231 240 250 253 255 258 259 266 272 279 281 284 286 283 282 287 283 275 277 272 284 282 289 292 285 289 284 283 280 271 275 281 281 279 278 282 285 294 282 276 269 261 251 240 244 241 251 261 276 269 255 264 279 291 300 309 297 292 301
228 229 230 225 222 221 218 224 218 214 215 213 213 211 213 215 215 224 235 225 217 211 213 220 224 228 227 235 243 252 251 249 253 260 259 265 270 278 285 290 296 295 289 288 278 277 279 284 281 288 292 287 288 283 281 277 277 275 268 267 266 267 264 264 272 271 278 270 256 239 235 231 240 260 274 288 253 265 285 288 285 293 289 293 297
231 230 229 228 224 225 222 221 217 218 216 215 213 210 211 212 215 222 235 223 218 212 216 219 227 228 227 231 235 244 255 252 250 251 254 252 251 265 276 285 290 286 291 285 283 284 287 286 293 283 282 282 287 290 288 288 285 279 274 269 268 268 269 267 267 271 273 274 279 306 287 273 252 257 253 256 267 265 260 268 283 282 289 289 290
232 233 230 228 228 222 223 219 220 217 215 213 211 212 208 216 214 223 232 225 212 213 213 221 224 225 227 231 232 238 243 247 251 252 245 243 251 271 275 274 276 283 281 283 288 287 288 288 284 288 290 289 286 283 285 285 285 280 277 274 269 267 263 263 261 262 269 270 274 250 259 258 264 263 249 248 253 254 255 271 288 290 290 287 286
234 235 239 237 230 225 224 223 221 218 214 212 211 209 210 215 216 220 223 219 209 217 217 218 222 223 229 232 235 239 245 246 248 254 259 259 263 263 268 267 269 280 283 285 283 289 284 283 289 287 289 286 286 283 282 279 277 274 269 265 266 265 265 262 262 262 261 264 270 267 263 253 251 257 265 264 259 258 257 259 269 273 282 290 292
241 234 235 236 233 229 224 223 221 216 214 212 212 207 210 212 214 216 217 207 205 218 217 218 222 226 234 238 237 235 237 244 247 250 252 252 256 258 261 269 279 278 280 283 286 281 279 285 290 290 288 286 284 281 277 274 272 270 268 266 259 258 261 261 260 259 256 254 251 246 236 242 240 243 253 258 255 255 261 256 253 262 269 272 280
243 242 240 236 231 227 224 223 219 216 214 215 214 210 210 211 210 210 212 212 211 210 218 214 223 233 239 238 233 231 235 241 243 245 245 247 246 258 269 274 267 269 272 277 277 281 286 291 289 286 281 279 278 277 272 270 268 265 264 262 260 258 254 255 258 259 261 260 261 259 255 250 249 252 260 264 263 255 248 248 248 257 265 271 270
247 241 238 236 230 227 221 220 218 218 215 214 213 208 210 212 214 210 210 208 207 206 210 219 219 224 223 231 236 237 236 240 246 249 237 234 249 257 259 260 265 268 272 270 272 280 284 286 282 283 282 280 278 273 270 266 262 264 263 264 259 259 259 256 244 248 252 252 250 251 250 253 248 251 250 267 277 286 299 292 283 275 275 278 278
243 240 237 233 230 225 220 217 215 213 214 214 209 195 199 207 212 217 214 203 209 207 210 217 220 228 232 236 237 233 232 233 236 237 239 245 255 255 256 263 264 265 260 259 270 281 286 285 282 280 281 280 277 275 271 268 263 261 262 261 259 256 260 259 258 251 249 249 252 251 248 248 250 255 253 249 258 264 266 270 273 279 280 283 288
241 237 235 232 230 226 222 219 219 216 213 210 195 200 208 209 213 210 207 201 205 206 205 216 220 228 235 237 237 232 232 231 238 240 248 250 250 254 258 263 266 258 253 266 274 279 280 279 281 281 282 281 279 276 273 270 265 263 261 261 262 258 259 259 258 257 252 251 248 246 244 242 242 246 248 250 249 251 253 256 257 268 274 282 286
242 239 233 233 230 227 224 217 216 209 211 212 201 201 205 212 212 213 214 213 211 208 210 214 222 226 233 237 239 236 226 226 235 235 245 250 253 256 260 261 253 252 260 273 274 273 273 276 282 283 281 278 274 272 268 263 259 258 259 257 259 260 257 258 254 255 250 246 245 243 240 241 238 240 242 248 247 245 247 247 249 255 261 265 271
250 241 236 232 228 223 216 212 210 209 209 197 207 207 214 214 212 213 209 216 206 211 208 214 220 227 235 236 235 233 226 235 234 241 247 248 250 254 254 251 251 263 264 265 269 269 273 280 280 280 277 274 273 272 271 271 268 264 262 259 258 259 260 261 259 256 252 243 242 241 243 240 238 246 251 255 259 264 271 265 254 243 258 263 263
252 251 244 238 233 226 217 217 217 216 216 213 213 213 214 213 212 209 214 203 196 206 209 215 221 225 223 227 236 235 228 227 237 241 247 247 250 252 247 246 254 261 264 263 264 273 279 279 279 277 276 274 273 272 269 265 266 267 267 265 262 258 258 259 258 259 253 249 243 242 239 231 231 236 238 239 242 248 249 256 261 265 271 282 297
260 251 244 240 234 225 223 219 216 216 215 214 212 212 209 212 208 210 200 192 206 195 199 198 212 227 227 231 236 237 240 242 240 241 243 247 251 250 240 249 259 262 260 265 270 278 280 278 275 275 275 274 273 273 272 268 266 262 262 261 258 257 257 258 257 257 255 249 246 242 242 229 226 233 234 235 237 245 247 244 246 252 259 265 276
262 258 248 236 232 231 230 224 220 217 214 213 213 211 210 209 211 201 190 195 198 194 201 205 213 223 231 235 233 236 243 246 247 243 241 247 247 239 243 254 255 260 262 265 276 276 276 278 274 273 272 271 271 268 266 266 266 265 264 259 255 254 255 255 255 254 252 249 250 249 244 234 224 224 231 230 228 234 235 238 241 248 253 266 270
270 261 254 249 240 233 229 225 222 218 213 214 210 210 210 208 198 189 196 190 190 191 202 210 214 222 232 233 233 237 242 245 245 248 244 235 233 245 253 254 249 259 267 272 269 271 272 275 274 272 270 270 271 269 266 266 265 264 262 259 260 256 253 250 249 248 246 245 244 245 244 237 232 227 228 226 223 226 226 234 235 235 242 253 258
275 268 258 246 244 241 233 228 223 221 215 216 211 208 208 195 194 192 190 192 192 195 207 214 218 227 229 232 234 239 241 243 246 248 246 234 236 249 248 245 254 262 265 265 266 268 273 273 273 272 270 270 268 266 264 262 260 258 257 257 256 256 254 248 246 241 241 240 238 239 239 236 232 232 227 226 217 222 222 235 232 228 234 240 246
283 271 262 253 249 243 236 229 225 220 215 208 203 200 190 194 193 189 189 197 189 196 209 212 219 224 226 231 237 240 237 238 242 249 250 245 237 238 238 252 256 261 263 264 266 267 269 269 270 269 268 264 262 260 259 256 256 252 247 251 249 249 246 245 244 240 233 236 236 235 235 233 230 233 232 229 221 218 216 229 228 220 228 228 233
290 285 275 259 251 249 242 233 227 214 204 201 200 196 192 189 192 186 191 195 182 207 208 215 221 224 228 231 233 230 224 229 240 246 248 244 232 235 252 257 258 259 262 264 264 262 261 267 270 269 266 262 259 259 260 261 259 254 236 234 243 239 235 234 235 238 236 226 232 231 235 236 237 238 239 240 241 240 234 222 221 222 223 226 230
295 290 284 274 260 250 245 235 231 222 209 194 191 186 180 188 187 182 188 188 186 206 211 214 222 224 226 231 230 223 223 234 241 244 240 228 239 235 254 259 262 263 262 262 260 262 260 263 263 267 268 264 263 263 266 266 267 265 263 252 236 231 240 235 231 229 240 226 229 225 227 235 239 242 242 242 242 244 246 246 238 225 214 215 223
305 302 299 287 271 256 242 237 232 227 217 204 189 184 180 192 183 182 183 180 193 206 213 216 215 219 224 224 225 226 225 231 233 238 238 230 227 229 246 259 263 264 263 261 261 262 264 261 259 259 262 263 263 266 270 271 272 272 271 266 257 247 243 241 236 231 231 221 233 224 222 220 225 229 231 240 244 245 245 247 247 248 244 233 220
309 307 304 300 287 266 249 241 235 228 218 207 182 170 190 182 177 182 170 182 196 202 208 208 213 216 218 219 222 224 221 222 224 228 233 230 234 246 241 257 264 263 265 261 264 265 262 260 260 262 264 265 264 269 272 274 275 276 276 275 264 260 258 253 241 231 226 226 227 223 222 217 221 229 233 231 231 239 245 247 251 252 248 247 247
310 308 307 302 293 276 253 240 234 229 218 208 171 180 168 157 161 166 175 184 189 201 196 206 204 212 212 209 209 217 230 232 221 225 231 234 233 242 248 255 263 261 260 265 264 264 263 261 259 258 262 265 265 270 274 276 278 278 278 278 277 279 274 279 261 239 224 224 221 220 222 226 218 217 222 227 225 228 228 237 246 250 254 255 250
313 312 310 309 302 286 263 247 233 223 207 179 178 147 139 153 163 173 177 178 185 193 200 198 200 203 206 205 218 219 223 221 228 228 229 234 235 248 253 255 251 258 262 259 262 263 263 261 261 259 261 266 265 272 276 279 281 282 283 285 279 255 277 294 294 263 231 226 222 221 224 231 229 220 222 219 222 226 223 225 230 236 241 244 246
313 311 309 308 304 293 271 251 233 190 185 182 179 147 150 166 157 174 172 179 183 190 194 187 194 192 195 206 205 221 221 221 224 227 232 239 242 246 251 253 257 259 257 258 257 253 259 261 260 259 259 267 269 275 280 283 285 285 285 288 280 267 276 293 307 298 254 235 224 218 220 232 233 231 231 229 227 220 221 226 229 233 236 237 239
311 311 307 305 299 292 277 257 213 195 184 187 164 149 152 149 165 179 168 182 187 192 195 187 186 191 187 197 210 214 221 217 219 225 229 237 250 248 246 246 257 258 265 259 254 255 253 256 263 259 260 266 271 277 281 283 285 289 293 292 283 269 277 278 281 310 279 239 229 218 221 229 238 239 241 238 236 229 213 222 228 233 235 235 241
318 315 312 309 303 292 280 251 225 207 200 180 162 158 154 163 175 168 178 191 192 199 186 185 184 179 179 174 201 210 204 207 218 225 233 249 249 247 251 239 254 261 259 257 261 263 259 254 258 262 258 263 269 276 283 287 292 292 292 301 308 275 270 285 282 287 289 276 246 246 231 223 237 245 248 250 245 237 222 217 222 229 235 238 243
320 318 314 310 307 297 282 257 225 224 204 172 164 166 161 179 168 179 185 197 203 196 186 188 185 173 180 178 177 187 201 206 226 237 234 245 252 254 258 259 254 251 254 254 257 262 269 269 262 264 272 273 273 279 285 288 290 289 296 311 304 289 283 285 288 286 278 266 251 267 284 275 250 243 249 254 256 249 225 221 222 224 232 236 241
321 321 318 310 301 296 275 245 232 232 185 173 167 169 180 178 180 165 195 207 202 192 182 167 167 167 173 176 174 182 188 207 232 237 229 240 252 253 261 259 256 251 255 259 263 263 267 271 271 271 274 271 269 272 275 283 286 292 304 307 306 299 297 295 285 280 280 270 253 236 250 273 283 286 275 266 262 259 244 223 218 222 227 240 240
321 319 319 314 303 273 262 255 246 229 183 185 170 170 184 188 173 186 214 208 170 152 164 174 169 171 178 182 186 178 208 210 205 229 238 245 249 256 259 254 257 261 262 263 260 260 265 271 272 271 271 274 267 271 275 280 290 303 307 308 297 293 288 283 275 277 268 265 259 248 237 267 280 275 272 277 281 281 279 271 237 220 227 236 236
323 325 328 321 307 287 272 266 249 208 193 183 178 185 191 171 178 213 215 133 135 163 159 167 176 180 180 181 178 178 195 206 189 210 225 246 255 248 253 255 257 258 258 258 259 257 263 270 276 278 272 275 277 270 263 281 304 307 309 303 295 283 283 273 272 262 261 261 258 249 265 286 281 276 276 276 276 274 270 265 259 250 235 237 242
327 330 330 328 317 303 285 270 253 212 193 185 176 196 199 182 200 221 153 145 165 157 166 170 173 173 176 177 172 189 175 180 205 207 230 247 256 254 253 251 252 256 256 259 260 255 257 271 282 284 275 266 266 264 283 302 313 311 306 299 291 286 284 282 277 274 270 269 263 287 289 282 276 274 271 270 269 270 270 268 271 273 273 262 251
328 328 327 327 319 307 296 283 250 217 198 191 182 206 207 200 225 178 163 155 147 167 160 169 169 177 171 173 170 175 170 190 207 216 232 249 257 255 258 252 247 251 260 263 262 255 260 270 277 290 288 268 256 246 290 303 306 306 303 298 295 291 288 282 273 274 278 275 286 277 267 268 267 267 271 277 280 280 280 280 278 276 278 278 268
323 323 322 321 318 311 303 292 260 223 209 208 204 208 212 216 229 183 177 157 158 153 163 172 173 168 174 159 163 174 173 197 202 207 221 229 249 244 252 255 245 246 246 256 264 259 262 270 277 277 285 292 283 297 290 290 301 302 302 302 301 298 294 292 293 282 277 269 265 269 269 273 281 292 297 306 315 310 307 307 305 307 312 304 279
323 324 325 323 320 317 306 291 280 233 224 216 212 208 215 227 204 167 168 159 152 170 177 181 156 173 178 172 178 186 195 203 210 215 212 226 236 241 245 258 254 251 247 252 262 261 258 258 258 269 269 291 313 308 298 294 288 294 294 295 296 302 302 298 294 297 288 288 297 318 338 337 335 322 309 302 296 302 304 306 310 325 325 300 290
322 320 321 322 324 320 316 307 294 268 227 226 216 217 227 227 174 168 146 162 167 178 176 187 183 158 170 169 171 176 186 195 211 217 210 216 225 232 242 254 251 245 249 250 254 254 258 255 257 258 240 312 300 301 286 285 287 278 278 277 280 288 299 301 299 285 314 23 356 358 351 345 339 323 328 333 326 324 315 317 325 309 301 308 292
319 317 320 320 321 320 316 313 304 289 249 227 218 223 227 217 182 154 158 168 171 163 182 169 169 174 156 161 173 193 196 207 206 204 213 218 224 225 231 238 234 229 227 243 242 246 243 248 265 247 254 252 267 275 275 273 280 281 272 265 281 296 288 281 280 359 58 34 45 14 11 8 351 354 344 343 338 334 331 335 329 316 313 309 315
320 319 318 317 316 314 312 310 303 295 274 233 225 227 223 200 173 169 170 161 167 168 183 182 179 157 176 176 180 174 193 195 206 205 211 225 225 224 227 242 241 226 223 234 245 247 246 246 247 232 239 235 242 260 268 269 269 283 306 315 299 279 278 4 343 44 64 42 34 27 12 9 10 356 354 348 348 342 341 338 338 331 331 330 329
316 314 312 311 311 310 311 309 304 298 280 251 234 231 219 202 194 176 171 163 165 156 173 176 167 166 162 169 174 181 181 195 194 221 228 257 242 238 226 220 258 256 243 238 233 240 246 229 202 215 207 227 235 248 273 291 311 318 317 315 308 332 11 13 352 41 72 64 33 34 26 4 9 2 2 354 349 344 337 335 337 334 335 337 342
314 313 312 311 311 312 311 310 308 302 287 261 244 232 218 203 193 183 174 172 154 165 176 179 171 180 178 169 167 175 182 185 189 205 226 239 297 294 267 254 248 252 254 259 268 271 277 284 280 227 281 291 290 296 302 312 322 331 328 319 336 31 27 21 2 63 46 38 23 28 20 7 12 8 3 346 347 340 337 332 331 329 331 337 342